Location: Oakley
(37.9974°N, 121.7125°W)
Time: 02:48:40
(UTC+00:00)

Cosmos 2082 - Pass Details

Date: 13 February 2026
Orbit: 831 x 855 km, 71.0° (Epoch: 7 March)

Event Time Altitude Azimuth Distance (km) Brightness Sun altitude
Rises 13:58:28 0° 339° (NNW) 3,425 6.6 -12.5°
Reaches altitude 10° 14:00:57 10° 341° (NNW) 2,483 5.9 -12.0°
Maximum altitude 14:06:39 77° 67° (ENE) 870 3.9 -10.9°
Drops below altitude 10° 14:12:18 10° 154° (SSE) 2,452 6.6 -9.8°
Sets 14:14:43 0° 156° (SSE) 3,380 7.4 -9.3°
